Regional Weather Roundup
Issued by NWS

Home | Current Version | Previous Version | Graphics & Text | Print | Product List | Glossary On
Versions: 1 2 3 4 5 6 7 8 9 10 11 12 13 14 15 16 17 18 19 20 21 22 23 24 25 26 27 28 29 30 31 32 33 34 35 36 37 38 39 40 41 42 43 44 45 46 47 48 49 50
000
ASUS43 KLOT 240300
RWRIL

ILLINOIS REGIONAL WEATHER ROUNDUP
NATIONAL WEATHER SERVICE CHICAGO/ROMEOVILLE IL
1000 PM CDT WED JUL 23 2014

NOTE: "FAIR" INDICATES FEW OR NO CLOUDS BELOW 12,000 FEET WITH NO
SIGNIFICANT WEATHER AND/OR OBSTRUCTIONS TO VISIBILITY.

* THESE STATIONS ARE NOT UNDER NWS QUALITY CONTROL. THEY ALSO MAY NOT
  REPORT WEATHER SUCH AS PRECIPITATION OR FOG.

ILZ001-002-007-009-015-016-024-240400-
NORTHWEST ILLINOIS

CITY           SKY/WX    TMP DP  RH WIND       PRES   REMARKS
MOLINE         CLEAR     65  57  75 CALM      30.13S
STERLING*      PTCLDY    63  55  77 E7        30.15R
$$

ILZ003-004-008-010-011-017-018-240400-
NORTH CENTRAL ILLINOIS

CITY           SKY/WX    TMP DP  RH WIND       PRES   REMARKS
ROCKFORD       PTCLDY    63  52  67 E7        30.18R
FREEPORT*      PTCLDY    61  57  87 E6        30.18R
PERU*          CLEAR     65  55  71 E7        30.15S
$$

ILZ005-006-012>014-019>023-240400-
NORTHEAST ILLINOIS

CITY           SKY/WX    TMP DP  RH WIND       PRES   REMARKS
CHICAGO-OHARE  PTCLDY    62  49  62 N12       30.13S
CHICAGO-MIDWAY CLEAR     65  51  60 N10       30.13S
AURORA         CLEAR     60  49  66 NE6       30.16R
LANSING*       CLEAR     62  51  68 N8G16     30.13S
WAUKEGAN       CLEAR     60  50  69 N7        30.15S
DUPAGE AIRPORT CLEAR     58  48  69 N7        30.15R
WHEELING       CLEAR     62  50  64 N9        30.16S
NORTHERLY ISL    N/A     62  52  69 MISG        N/A
$$

LMZ740>746-240400-
SOUTHERN LAKE MICHIGAN

STATION/POSITION SKY/WX   TEMP    WIND        PRES    VSBY  WAVE
                          AIR SEA DIR/SP/G                  HT/PER
                          (F)     (DEG/KT/KT) (MB)    (MI)  (FT/S)
SOUTHERN BUOY              60 59  360/ 17/ 21 1019.7F         5/ 6
WAUKEGAN HARBOR            61     350/ 11/ 15 1022.0S
HARRISON CRIB              63      10/ 22/ 25   N/A
BURNHAM HARBOR             62     350/ 12/ 15   N/A
CALUMET HARBOR             63     340/ 11/ 14 1019.2R
MICHIGAN CITY              63     360/ 18/ 21   N/A
MICHIGAN CITY 6N           64 69   30/ 16/ 19   N/A           9/ 2
ST. JOSEPH                 58 51   20/ 10/ 14   N/A           7/ 2
$$

ILZ025>027-034>036-040-047-049-050-058-095>099-240400-
WEST-CENTRAL ILLINOIS

CITY           SKY/WX    TMP DP  RH WIND       PRES   REMARKS
QUINCY         CLEAR     66  58  75 N6        30.14R
GALESBURG*     CLEAR     62  58  87 CALM      30.14S
MACOMB*        CLEAR     62  59  91 CALM      30.17R
$$

ILZ028>032-037-038-041>044-048-051>054-059>061-240400-
CENTRAL ILLINOIS

CITY           SKY/WX    TMP DP  RH WIND       PRES   REMARKS
PONTIAC        CLEAR     63  57  82 NE7       30.14S
PEORIA         CLEAR     67  57  70 CALM      30.13R
SPRINGFIELD    CLEAR     68  58  70 E5        30.13R
TAYLORVILLE    NOT AVBL
$$

ILZ033-039-045-046-055>057-062-063-240400-
EAST-CENTRAL ILLINOIS

CITY           SKY/WX    TMP DP  RH WIND       PRES   REMARKS
CHAMPAIGN      CLEAR     64  52  64 NE14      30.13R
MATTOON        CLEAR     60  50  69 N6        30.11R
$$

ILZ079-100>102-240400-
SOUTHWEST ILLINOIS

CITY           SKY/WX    TMP DP  RH WIND       PRES   REMARKS
ALTON          CLEAR     68  63  83 CALM      30.12R
BELLEVILLE     CLEAR     70  61  73 NE3       30.10R
CAHOKIA*       CLEAR     73  61  65 NE7       30.11R
SPARTA*        CLEAR     70  59  68 N7        30.10S
$$

ILZ064>066-069>071-074>076-080>082-084>086-088>090-092>094-240400-
SOUTH-CENTRAL ILLINOIS

CITY           SKY/WX    TMP DP  RH WIND       PRES   REMARKS
CARBONDALE     CLEAR     73  64  73 N5        30.07R
MT. VERNON     CLEAR     70  55  60 N9        30.11R
SALEM*         CLEAR     69  58  67 N9        30.11R
$$

ILZ067-068-072-073-078-083-087-091-240400-
SOUTHEAST ILLINOIS

CITY           SKY/WX    TMP DP  RH WIND       PRES   REMARKS
LAWRENCEVILLE  CLEAR     66  57  72 N9        30.07R
HARRISBURG*    MOCLDY    73  64  72 N9G17     30.08R
ROBINSON*      CLEAR     66  57  73 N8        30.10R
CARMI*         MOCLDY    72  64  78 N9        30.06R
$$

ABBREVIATIONS USED IN REMARKS
   TC - TEMPERATURE IN CELSIUS
  WCI - WIND CHILL INDEX
   HX - HEAT INDEX
  VSB - VISIBILITY
$$



USA.gov is the U.S. government's official web portal to all federal, state and local government web resources and services.